Back to catalog

QIANFAN-26

AliveCommunicationsPO
NORAD 61559·PAYLOAD·🇨🇳 China

Launched Oct 15, 2024 from Taiyuan Satellite Launch Center

Loading…

Next Passes (next 24 hours)

TLE

FreshSource: Space-Track

Epoch: Sep 14, 2026, 13:21 UTC

1 61559U 24185H   26257.55640224  .00000206  00000-0  19303-3 0  9993
2 61559  88.9827  49.9806 0003877 249.5722 110.5028 13.77943103106655

Track QIANFAN-26 in real time with AllMySat

Download on the App Store